Wind_Speed
5 6 7 8 9 9 10 11 11 11 12 12 12 12 12 13 14 14 15 16 16 16 16 16 15 15 14 13 13 12 12 11 11 10 9 8 8 7 6 6 5 5 4
6 7 7 8 9 10 11 12 12 12 13 13 13 13 13 14 15 15 16 16 17 17 17 17 17 17 16 15 14 13 13 12 12 11 10 9 8 8 7 6 5 5 4
8 8 9 10 10 11 12 12 12 13 13 14 14 14 15 15 16 16 17 17 18 19 19 19 19 18 17 17 15 14 14 13 12 11 11 10 9 8 8 7 6 5 4
9 10 10 11 11 11 12 12 12 13 13 13 14 14 16 16 17 18 18 18 19 20 20 20 20 20 19 18 16 15 14 14 13 12 11 10 10 9 8 7 6 5 4
10 10 11 11 11 11 11 11 11 12 13 14 15 16 16 17 17 18 18 19 19 20 21 21 20 21 21 20 18 17 16 15 14 13 12 11 10 10 9 8 6 6 5
10 11 11 10 10 10 11 11 12 13 13 14 15 16 16 17 17 18 19 19 20 21 22 22 22 22 22 21 20 18 17 16 15 14 13 12 11 10 9 8 7 6 5
9 10 10 9 9 9 10 11 12 13 13 14 15 16 17 18 18 18 19 20 20 22 23 22 22 22 23 23 22 20 18 17 16 15 14 13 12 11 10 9 7 6 5
8 8 8 8 8 9 10 11 12 13 14 15 15 16 16 17 18 18 19 20 20 21 22 22 22 22 23 24 23 22 20 18 17 16 15 14 13 12 10 9 8 6 5
7 7 6 7 8 9 10 11 12 13 14 15 16 16 17 18 18 19 19 20 21 21 22 23 23 23 24 24 24 23 22 20 18 17 16 15 13 12 11 10 8 6 5
7 6 6 7 8 9 10 11 12 13 14 15 16 17 18 18 19 19 20 21 22 22 23 24 23 24 24 25 25 24 23 21 20 19 17 15 14 13 12 11 9 7 6
6 6 6 7 8 9 9 10 11 12 13 14 16 17 18 18 18 19 20 20 21 22 23 24 24 24 24 25 25 24 23 22 21 20 19 17 16 14 14 12 10 9 8
6 6 7 8 8 8 9 10 11 13 14 15 15 16 17 18 18 19 19 20 21 22 23 23 24 24 24 25 25 25 24 22 21 21 20 19 17 16 15 14 12 10 9
6 6 6 7 8 8 9 11 12 13 14 15 15 16 16 17 18 19 19 20 21 22 23 24 24 25 25 24 24 25 25 24 23 22 21 20 18 17 17 15 14 12 11
6 5 6 6 7 8 9 11 12 13 14 15 15 16 17 17 18 19 20 20 20 21 22 23 24 25 26 25 24 25 25 25 24 23 22 21 19 18 18 17 15 14 12
5 5 5 6 7 9 10 11 12 13 14 15 16 16 17 18 18 19 19 20 20 21 21 22 24 25 27 27 26 26 26 25 26 24 23 22 20 19 19 18 17 16 14
4 4 5 7 8 9 10 11 13 14 15 15 16 17 18 18 18 18 18 19 19 20 20 21 22 24 26 27 26 26 26 26 26 25 25 24 23 21 20 20 19 17 16
4 4 5 7 8 9 10 12 13 14 15 16 17 18 18 18 18 19 19 19 19 20 20 21 22 23 24 25 26 26 27 27 28 27 26 25 24 23 22 21 20 19 18
4 4 6 7 8 9 11 12 14 15 16 16 17 18 19 18 18 19 19 19 19 19 19 20 21 22 22 24 24 25 27 28 29 28 28 26 26 24 24 22 21 20 19
4 5 6 7 8 10 11 12 14 15 16 17 18 19 19 18 18 18 18 18 18 18 18 18 19 20 21 22 23 24 26 27 28 28 29 28 27 26 25 24 23 21 20
4 5 6 7 9 10 11 13 14 15 16 17 18 19 19 18 18 18 18 18 18 17 17 17 18 19 19 21 22 23 25 27 28 28 28 29 29 27 26 25 24 23 22
5 5 6 8 9 10 12 13 14 15 17 17 18 19 19 19 18 18 18 17 17 16 16 15 16 17 18 19 21 22 24 26 27 27 28 29 29 28 27 27 26 25 24
5 6 7 8 9 10 12 13 14 15 17 17 18 19 19 19 19 18 18 17 16 15 14 13 14 14 16 17 19 21 22 24 26 27 27 28 29 29 28 27 28 27 26
6 7 7 8 9 10 12 13 14 15 17 17 18 19 19 19 19 18 18 17 16 14 13 12 11 12 14 15 17 19 20 22 25 26 27 28 29 29 29 28 29 28 27
6 7 7 8 9 10 12 13 14 15 17 17 18 19 19 19 19 18 18 16 14 13 11 10 9 10 11 13 15 17 19 21 23 25 26 27 29 29 29 29 29 27 27
6 7 7 8 9 10 12 13 14 15 16 17 18 18 18 19 18 17 17 16 14 12 11 9 8 8 9 11 14 16 17 19 21 23 25 26 27 29 29 29 29 28 27
7 7 7 8 9 10 11 13 14 15 16 16 17 18 18 18 18 17 16 15 14 12 10 8 7 7 8 10 12 14 16 18 20 21 23 25 26 27 28 28 28 28 28
Wind_Direction
298 302 298 295 294 294 296 297 296 293 288 285 284 283 282 279 277 275 272 271 268 264 263 263 263 264 265 268 272 275 276 277 278 282 287 291 297 305 308 309 317 321 325
295 296 295 296 295 293 293 295 295 294 292 289 286 284 283 282 281 278 273 270 269 267 265 264 263 263 262 264 268 271 273 273 274 275 278 283 287 292 298 301 310 319 319
289 290 292 295 294 293 292 292 293 293 291 289 287 285 283 282 281 279 274 271 269 269 268 265 264 261 261 263 265 268 269 271 270 268 270 275 279 281 287 291 299 310 315
289 290 291 290 288 289 289 289 289 290 291 291 288 286 284 282 281 279 276 273 271 269 268 267 264 260 260 261 263 266 266 268 267 264 266 270 273 274 278 283 288 298 309
291 292 289 289 288 288 288 288 288 290 290 290 289 287 285 284 283 281 277 273 272 269 268 267 264 261 259 259 259 262 264 265 265 262 263 265 266 267 271 276 281 291 301
294 293 290 289 288 288 288 289 291 293 292 290 289 288 286 285 283 280 277 273 271 270 268 265 263 261 259 258 258 259 261 263 262 259 260 261 261 261 263 269 274 283 293
297 297 296 292 289 289 291 294 295 295 295 293 292 290 287 285 284 281 277 274 272 270 268 265 262 260 258 257 256 256 257 261 259 256 257 258 257 256 257 261 267 274 281
303 305 303 299 296 296 298 298 298 299 298 297 294 292 290 288 285 282 278 275 272 269 268 265 263 259 257 255 254 254 253 257 257 253 253 255 254 252 251 251 257 259 266
301 303 304 306 306 306 304 302 302 302 301 300 296 294 292 289 286 283 280 276 273 271 269 265 263 262 259 256 252 251 251 252 252 250 250 250 250 247 245 245 246 245 247
299 302 304 315 315 313 312 312 311 307 304 301 299 296 295 293 289 283 280 277 273 269 268 265 262 262 259 256 253 250 249 248 247 245 244 245 245 242 239 238 239 235 234
299 306 312 317 318 319 320 320 319 315 312 308 304 300 297 295 292 288 283 279 275 272 268 266 261 261 259 255 251 248 246 243 243 241 241 240 240 237 234 233 233 232 229
298 304 313 317 320 321 323 324 323 320 317 314 310 306 301 298 295 292 287 282 277 274 269 266 261 258 257 254 250 246 244 241 239 239 238 236 236 234 232 229 228 227 224
295 301 308 315 322 323 325 325 325 324 322 319 314 310 306 302 298 294 290 285 281 276 270 265 260 256 254 254 250 246 242 240 237 236 235 233 232 230 229 227 225 223 219
295 300 309 318 322 325 329 330 329 329 327 325 321 316 311 306 301 296 292 286 282 277 272 266 260 255 254 251 249 245 241 237 234 234 231 230 229 227 226 225 224 222 219
288 298 312 324 328 331 332 333 332 331 329 326 324 320 316 311 306 300 294 288 283 278 273 267 262 257 253 250 247 243 237 234 231 232 229 228 228 227 225 224 223 220 218
277 294 312 324 329 331 333 335 335 334 332 329 325 323 319 314 309 305 299 294 287 281 274 269 265 259 254 250 245 241 236 231 228 229 228 226 226 225 225 225 222 220 218
274 292 311 324 329 332 335 337 337 338 335 332 328 326 323 318 311 306 302 297 291 284 277 271 266 261 256 250 245 239 235 231 227 226 226 225 224 224 224 224 222 220 219
275 294 313 322 327 332 336 338 339 338 336 333 331 329 327 322 316 310 306 301 295 288 280 272 265 260 255 250 244 238 234 231 227 225 225 224 223 222 223 222 222 220 220
277 298 313 321 327 332 337 339 339 338 336 335 334 331 330 327 322 316 310 305 299 292 283 274 265 259 254 249 243 238 233 231 229 225 224 223 221 221 221 220 220 221 219
284 301 311 321 328 333 336 337 337 338 338 337 336 334 333 331 326 321 316 310 304 296 286 277 267 259 253 247 241 237 233 229 227 224 224 222 221 221 220 220 220 220 219
288 303 313 323 329 333 337 338 338 340 340 339 338 338 337 334 330 326 323 317 310 301 291 280 270 260 251 244 239 236 233 229 227 223 222 222 220 220 220 220 219 220 220
293 308 318 325 330 334 337 339 340 342 343 342 342 342 340 337 335 332 329 324 317 308 297 286 274 261 248 241 237 234 231 228 226 222 221 220 218 219 218 220 219 220 220
295 308 317 325 331 334 337 339 340 341 343 342 342 342 342 341 339 337 335 330 325 316 303 290 278 262 247 239 235 232 230 227 224 222 219 219 219 218 219 221 221 221 220
294 304 314 325 331 336 338 339 339 341 342 342 342 342 343 343 343 342 342 339 334 328 317 301 285 266 250 240 234 230 229 226 224 221 220 219 218 218 219 220 221 221 221
291 299 309 321 331 336 338 339 340 341 341 342 343 344 345 346 346 346 346 345 341 337 330 317 296 277 255 241 234 230 228 225 225 224 220 217 217 218 220 220 221 221 221
288 294 303 314 325 332 335 337 339 340 341 343 344 345 347 348 349 348 348 348 346 343 339 331 311 286 261 245 236 231 227 224 223 222 221 219 218 217 219 219 221 222 223
Height
5867 5866 5866 5866 5866 5866 5865 5865 5865 5864 5864 5864 5864 5864 5864 5864 5864 5864 5865 5865 5865 5866 5866 5867 5868 5869 5870 5871 5872 5873 5873 5874 5874 5875 5876 5876 5876 5876 5876 5876 5876 5876 5876
5865 5865 5865 5865 5864 5864 5864 5863 5863 5862 5862 5862 5862 5862 5862 5862 5862 5862 5862 5862 5863 5863 5864 5864 5865 5866 5868 5869 5870 5871 5871 5872 5873 5874 5874 5875 5875 5875 5875 5875 5875 5875 5875
5864 5864 5864 5863 5863 5862 5862 5861 5861 5860 5860 5860 5859 5859 5859 5859 5859 5859 5859 5859 5860 5860 5861 5862 5862 5864 5865 5866 5867 5868 5869 5870 5871 5872 5873 5873 5873 5874 5874 5874 5874 5874 5874
5863 5862 5862 5862 5861 5861 5860 5860 5859 5859 5858 5857 5857 5857 5856 5856 5856 5856 5856 5856 5857 5857 5858 5858 5859 5860 5862 5863 5865 5866 5867 5868 5869 5870 5871 5871 5872 5872 5873 5873 5873 5873 5873
5861 5861 5860 5860 5859 5859 5858 5858 5857 5857 5856 5855 5855 5854 5854 5853 5853 5853 5853 5853 5853 5853 5854 5855 5856 5857 5858 5860 5861 5863 5864 5865 5866 5868 5869 5870 5870 5871 5871 5872 5872 5872 5872
5859 5859 5858 5858 5857 5857 5857 5856 5855 5854 5854 5853 5852 5852 5851 5850 5850 5849 5849 5849 5850 5850 5850 5851 5852 5853 5854 5856 5858 5860 5861 5862 5864 5865 5866 5867 5868 5869 5870 5870 5871 5871 5870
5857 5857 5857 5856 5856 5855 5855 5854 5853 5852 5851 5850 5850 5849 5848 5847 5846 5846 5846 5846 5846 5846 5846 5846 5847 5848 5850 5852 5854 5856 5857 5859 5860 5862 5864 5865 5866 5867 5868 5869 5869 5869 5869
5856 5855 5855 5854 5854 5853 5852 5852 5851 5850 5849 5848 5847 5846 5845 5844 5843 5842 5842 5842 5842 5842 5842 5842 5843 5844 5846 5847 5849 5851 5854 5856 5857 5859 5861 5862 5864 5865 5866 5867 5868 5868 5868
5854 5854 5853 5852 5852 5851 5851 5850 5848 5847 5846 5845 5844 5842 5841 5840 5839 5839 5838 5837 5837 5837 5837 5838 5839 5840 5841 5842 5844 5847 5849 5852 5854 5856 5858 5860 5861 5863 5864 5865 5867 5867 5867
5853 5852 5852 5851 5850 5849 5848 5847 5846 5845 5843 5842 5841 5839 5838 5837 5836 5835 5834 5833 5833 5833 5833 5833 5834 5835 5836 5838 5840 5842 5845 5848 5850 5852 5854 5856 5858 5860 5862 5863 5865 5865 5866
5852 5851 5851 5850 5849 5848 5847 5845 5844 5843 5841 5839 5838 5836 5835 5833 5832 5830 5830 5829 5828 5828 5828 5829 5829 5830 5831 5833 5835 5837 5840 5843 5846 5849 5851 5853 5855 5858 5859 5861 5863 5864 5865
5851 5850 5849 5848 5847 5846 5845 5843 5842 5841 5839 5837 5835 5833 5831 5829 5828 5826 5825 5824 5824 5823 5823 5824 5824 5825 5826 5828 5830 5833 5836 5839 5842 5844 5847 5850 5852 5855 5857 5859 5861 5863 5864
5849 5849 5848 5847 5846 5845 5844 5842 5840 5838 5836 5834 5832 5830 5828 5826 5824 5822 5821 5820 5819 5818 5818 5818 5819 5820 5821 5822 5824 5827 5830 5834 5837 5840 5843 5846 5849 5851 5854 5856 5858 5861 5862
5848 5847 5847 5846 5845 5843 5842 5840 5838 5836 5834 5831 5829 5827 5824 5822 5820 5818 5816 5815 5814 5813 5813 5813 5813 5814 5815 5817 5819 5822 5825 5829 5832 5836 5839 5842 5845 5848 5851 5853 5856 5858 5860
5847 5846 5846 5844 5843 5842 5840 5838 5836 5834 5831 5829 5826 5824 5821 5819 5816 5814 5812 5810 5809 5808 5807 5807 5808 5808 5810 5811 5814 5816 5820 5823 5827 5831 5834 5838 5841 5844 5847 5850 5853 5855 5858
5846 5845 5844 5843 5842 5840 5838 5836 5834 5832 5829 5826 5824 5821 5818 5815 5812 5810 5807 5805 5804 5803 5802 5802 5802 5802 5804 5805 5808 5811 5814 5818 5822 5826 5830 5834 5837 5840 5844 5846 5849 5852 5855
5844 5844 5843 5842 5840 5838 5837 5834 5832 5829 5827 5824 5821 5818 5815 5811 5808 5806 5803 5801 5799 5797 5796 5796 5796 5797 5798 5799 5802 5805 5808 5812 5816 5821 5825 5829 5833 5836 5840 5843 5846 5849 5852
5843 5842 5841 5840 5839 5837 5835 5833 5830 5827 5825 5822 5818 5815 5811 5808 5805 5802 5799 5796 5794 5792 5791 5790 5790 5791 5792 5793 5796 5799 5803 5806 5811 5815 5819 5824 5828 5832 5835 5839 5842 5845 5849
5842 5841 5840 5839 5837 5835 5833 5831 5828 5825 5822 5819 5816 5812 5808 5805 5801 5798 5795 5792 5789 5787 5786 5785 5785 5785 5786 5788 5790 5793 5797 5801 5805 5809 5814 5818 5823 5827 5831 5835 5838 5842 5845
5840 5839 5839 5837 5835 5833 5831 5829 5826 5824 5820 5817 5813 5810 5806 5802 5798 5795 5791 5788 5785 5782 5781 5780 5780 5780 5781 5783 5785 5788 5791 5795 5799 5804 5809 5813 5818 5822 5826 5830 5834 5838 5842
5838 5838 5837 5835 5833 5831 5829 5827 5824 5821 5818 5815 5811 5807 5803 5799 5795 5791 5787 5784 5781 5778 5776 5775 5774 5775 5776 5778 5780 5783 5786 5790 5794 5798 5803 5808 5812 5817 5821 5826 5830 5834 5838
5837 5836 5835 5833 5832 5830 5827 5825 5822 5819 5816 5813 5809 5805 5801 5797 5792 5788 5784 5780 5777 5774 5772 5770 5770 5770 5771 5773 5775 5778 5781 5785 5789 5793 5798 5802 5807 5812 5816 5821 5825 5829 5833
5835 5834 5833 5831 5830 5828 5826 5823 5820 5817 5814 5811 5807 5803 5799 5795 5790 5786 5782 5778 5774 5771 5769 5767 5766 5766 5767 5769 5771 5774 5777 5780 5784 5788 5792 5797 5802 5807 5811 5816 5820 5824 5829
5833 5832 5831 5830 5828 5826 5824 5821 5819 5816 5813 5809 5805 5801 5797 5793 5789 5784 5780 5776 5772 5769 5766 5765 5764 5764 5764 5766 5768 5770 5773 5776 5780 5784 5788 5792 5797 5802 5806 5811 5815 5820 5824
5831 5830 5829 5828 5826 5824 5822 5820 5817 5814 5811 5808 5804 5800 5796 5792 5787 5783 5779 5775 5771 5768 5765 5763 5762 5762 5762 5763 5764 5766 5769 5772 5775 5779 5783 5787 5792 5797 5801 5806 5810 5815 5819
5830 5829 5828 5826 5825 5823 5821 5819 5816 5813 5809 5806 5802 5798 5795 5790 5786 5782 5778 5774 5771 5767 5764 5762 5761 5760 5760 5760 5762 5763 5766 5768 5772 5775 5779 5783 5787 5792 5796 5801 5805 5810 5814